Location: Boncourt
(49.6160°N, 3.9448°E)
Time: 15:22:10
(UTC+00:00)

Resurs 01 Rocket - Pass Details

Date: 09 February 2023
Orbit: 632 x 643 km, 97.9° (Epoch: 25 March)

Event Time Altitude Azimuth Distance (km) Brightness Sun altitude
Exits shadow 19:39:56 18° 360° (N) 1,572 3.7 -27.4°
Drops below altitude 10° 19:41:11 10° 355° (N) 2,053 4.4 -27.6°
Sets 19:43:26 0° 351° (N) 2,968 5.3 -28.0°
